Eastover, SC

10:23 PM EDT on October 20, 2017 (GMT -0400)
McEntire Angs

Weather History for KMMT - October, 2012

Change the Weather History Date:

Thursday, October 18, 2012

  Actual Average Record
Temperature  
Mean Temperature 67 °F -  
Max Temperature 81 °F 71 °F 86 °F (2007)
Min Temperature 54 °F 50 °F 40 °F (2015)
Cooling Degree Days 2    
Growing Degree Days 17 (Base 50)    
Moisture  
Dew Point 58 °F    
Average Humidity 85    
Maximum Humidity 100    
Minimum Humidity 53    
Precipitation  
Precipitation 0.02 in - - ()
Sea Level Pressure  
Sea Level Pressure 29.87 in    
Wind  
Wind Speed 3 mph (SE)    
Max Wind Speed 9 mph    
Max Gust Speed -    
Visibility 10 miles    
Events Rain    
Averages and records for this station are not official NWS values.
T = Trace of Precipitation, MM = Missing Value Source: NWS Daily Summary

Daily Weather History Graph

Daily Weather History Graph

Search for Another Location

Airport or City:

Trip Planner

Search our weather history database for the weather conditions in past years. The results will help you decide how hot, cold, wet, or windy it might be!

Date:

Astronomy

Oct. 18, 2012 Rise Set
Actual Time 7:31 AM EDT 6:45 PM EDT
Civil Twilight 7:05 AM EDT 7:10 PM EDT
Nautical Twilight 6:36 AM EDT 7:39 PM EDT
Astronomical Twilight 6:07 AM EDT 8:08 PM EDT
Moon 11:01 AM EDT (10/18) 9:27 PM EDT (10/18)
Length of Visible Light 12h 04m
Length of Day
11h 13m
Waxing Crescent, 14% of the Moon is Illuminated
Oct 18
Waxing Crescent
Oct 21
First Quarter
Oct 29
Full
Nov 6
Last Quarter
Nov 13
New

Hourly Weather History & Observations

Time (EDT) Temp. Heat Index Dew Point Humidity Pressure Visibility Wind Dir Wind Speed Gust Speed Precip Events Conditions
12:55 AM 54.0 °F - 52.2 °F 94% 29.90 in 10.0 mi ESE 4.6 mph - N/A   Clear
1:55 AM 54.9 °F - 53.2 °F 94% 29.90 in 10.0 mi Calm Calm - N/A   Clear
2:55 AM 54.0 °F - 52.3 °F 94% 29.89 in 10.0 mi Calm Calm - N/A   Scattered Clouds
3:55 AM 56.1 °F - 53.8 °F 92% 29.88 in 10.0 mi Calm Calm - N/A   Mostly Cloudy
4:55 AM 57.4 °F - 54.3 °F 90% 29.88 in 10.0 mi Calm Calm - N/A   Scattered Clouds
5:55 AM 57.7 °F - 54.9 °F 90% 29.89 in 10.0 mi NE 3.5 mph - N/A   Mostly Cloudy
6:06 AM 57.2 °F - 55.4 °F 94% 29.89 in 10.0 mi Calm Calm - N/A   Mostly Cloudy
6:09 AM 57.2 °F - 55.4 °F 94% 29.89 in 10.0 mi Calm Calm - N/A   Mostly Cloudy
6:10 AM 57.2 °F - 55.4 °F 94% 29.89 in 10.0 mi Calm Calm - N/A   Mostly Cloudy
6:12 AM 57.2 °F - 55.4 °F 94% 29.89 in 10.0 mi NE 3.5 mph - N/A   Mostly Cloudy
6:13 AM 57.2 °F - 55.4 °F 94% 29.89 in 10.0 mi NE 3.5 mph - N/A   Mostly Cloudy
6:21 AM 57.2 °F - 55.4 °F 94% 29.89 in 10.0 mi Variable 3.5 mph - N/A   Mostly Cloudy
6:25 AM 57.2 °F - 55.4 °F 94% 29.89 in 10.0 mi Calm Calm - N/A   Mostly Cloudy
6:34 AM 59.0 °F - 55.4 °F 88% 29.89 in 10.0 mi Calm Calm - N/A   Mostly Cloudy
6:41 AM 59.0 °F - 55.4 °F 88% 29.89 in 7.0 mi Calm Calm - N/A Rain Rain
6:43 AM 59.0 °F - 55.4 °F 88% 29.89 in 7.0 mi WNW 3.5 mph - N/A Rain Light Rain
6:55 AM 58.1 °F - 56.1 °F 93% 29.89 in 10.0 mi Calm Calm - 0.00 in Rain Light Rain
6:59 AM 57.2 °F - 55.4 °F 94% 29.89 in 10.0 mi NE 3.5 mph - N/A Rain Light Rain
7:01 AM 57.2 °F - 55.4 °F 94% 29.89 in 10.0 mi East 3.5 mph - N/A   Light Drizzle
7:02 AM 57.2 °F - 55.4 °F 94% 29.89 in 10.0 mi Calm Calm - N/A   Light Drizzle
7:03 AM 57.2 °F - 55.4 °F 94% 29.89 in 10.0 mi Calm Calm - N/A   Overcast
7:13 AM 57.2 °F - 57.2 °F 100% 29.89 in 7.0 mi Calm Calm - N/A Rain Light Rain
7:27 AM 57.2 °F - 55.4 °F 94% 29.88 in 10.0 mi ENE 4.6 mph - N/A   Overcast
7:55 AM 57.4 °F - 55.8 °F 94% 29.90 in 6.0 mi Calm Calm - 0.01 in Rain Light Rain
8:16 AM 57.2 °F - 55.4 °F 94% 29.91 in 9.0 mi East 3.5 mph - N/A   Mostly Cloudy
8:55 AM 57.9 °F - 56.8 °F 96% 29.91 in 10.0 mi Calm Calm - 0.00 in   Mostly Cloudy
9:55 AM 63.9 °F - 59.5 °F 86% 29.91 in 10.0 mi Calm Calm - N/A   Overcast
10:55 AM 68.0 °F - 60.8 °F 78% 29.91 in 10.0 mi SSE 4.6 mph - N/A   Mostly Cloudy
11:55 AM 73.0 °F - 62.6 °F 70% 29.86 in 10.0 mi SSE 8.1 mph - N/A   Mostly Cloudy
12:55 PM 75.7 °F - 63.9 °F 66% 29.85 in 10.0 mi South 8.1 mph - N/A   Mostly Cloudy
1:55 PM 77.2 °F - 64.0 °F 64% 29.82 in 10.0 mi Variable 4.6 mph - 0.01 in   Mostly Cloudy
2:55 PM 80.6 °F 81.7 °F 62.2 °F 53% 29.80 in 10.0 mi Variable 5.8 mph - N/A   Mostly Cloudy
3:55 PM 79.9 °F - 62.1 °F 54% 29.80 in 10.0 mi SSE 9.2 mph - N/A   Mostly Cloudy
4:55 PM 80.1 °F 81.1 °F 61.3 °F 53% 29.79 in 10.0 mi SSE 9.2 mph - N/A   Scattered Clouds
5:55 PM 77.5 °F - 61.0 °F 57% 29.79 in 10.0 mi South 8.1 mph - N/A   Scattered Clouds
6:55 PM 73.6 °F - 61.0 °F 65% 29.81 in 10.0 mi South 4.6 mph - N/A   Mostly Cloudy
7:55 PM 69.8 °F - 60.4 °F 72% 29.81 in 10.0 mi South 4.6 mph - N/A   Scattered Clouds
8:55 PM 65.5 °F - 60.4 °F 84% 29.81 in 10.0 mi SSE 4.6 mph - N/A   Scattered Clouds
9:55 PM 63.5 °F - 59.9 °F 88% 29.82 in 10.0 mi SE 5.8 mph - N/A   Mostly Cloudy
10:55 PM 65.5 °F - 62.8 °F 91% 29.81 in 10.0 mi SSE 4.6 mph - N/A   Overcast
11:55 PM 66.9 °F - 65.1 °F 94% 29.80 in 10.0 mi SE 4.6 mph - N/A   Overcast